Location: Jetmore Oil Field
(38.1181°N, 99.9337°W)
Time: 23:02:38
(UTC+00:00)

ADEOS Rocket - Pass Details

Date: 17 February 2020
Orbit: 859 x 1306 km, 98.7° (Epoch: 09 April)

Event Time Altitude Azimuth Distance (km) Brightness Sun altitude
Rises 01:27:06 0° 13° (NNE) 4,232 6.1 -14.0°
Reaches altitude 10° 01:29:46 10° 14° (NNE) 3,291 5.6 -14.5°
Maximum altitude 01:37:31 84° 104° (ESE) 1,318 3.6 -16.0°
Drops below altitude 10° 01:45:16 10° 192° (SSW) 3,281 5.9 -17.6°
Sets 01:47:54 0° 193° (SSW) 4,219 6.5 -18.1°
